[Date Prev][Date Next][Thread Prev][Thread Next][Date Index][Thread Index]

[jamsat-news:1699] jas2info #272



========================   最新情報   ==============================

        Last updated  27Apr2002  15:40(JST)   #272 

====================================================================
   
1)アマチュア通信衛星情報、FOシリーズの軌道要素、テレメトリ、QSOの
   状況等をまとめてみました.
   
 FO−29の2002年4月26日(金)の17:54(JST)のパスでは
JARLのホームページのとうりアナログ運用でした。 今日までの観測した
テレメトリーと最終の分析結果を報告しておきます。

AS278004C  19Apr2002
17:55-18:13(JST)
AOS   MEL  LOS  Elev
 18    98  178  50.5
Freq. 435.803-.786MHz
HI HI AE 07 88 55 00 D4 00 00 09 00 43 62 77 5E 8F 8C B0 68 8E 8F 8C 8B 85 
HI HI AE 07 88 55 00 D4 00 00 09 00 46 5C 76 5E 8F 8C B0 AD 8E 8E 8C 8B 85 
HI HI AE 07 88 55 00 D4 00 90 09 00 4E 58 72 5E 8F 8D B0 5B 8E 8E 8C 8B 85 
HI HI AE 07 88 55 00 D4 00 00 09 00 56 56 6F 50 91 8E 9B 79 8E 8E 8C 8B 85 
HI HI AE 07 88 55 00 D4 00 00 09 00 5F 54 69 53 91 8E 9B 6A 8E 8E 8C 8B 85 
HI HI AE 07 88 55 00 D4 00 00 09 00 68 53 68 53 91 8E 9B 7B 8E 8E 8C 8B 85 
HI HI AE 07 88 55 00 D4 00 00 09 00 71 53 6D 50 91 8E 9B 7A 8E 8E 8C 8B 85 
HI HI AE 07 88 55 00 D4 00 00 09 00 79 53 6D 5E 8F 8C B0 62 8E 8E 8C 8B 85 
HI HI AE 07 88 55 00 D4 00 00 09 00 81 56 6F 50 91 8E 9B 69 8E 8E 8C 8B 85 
HI HI AE 07 88 55 00 D4 00 00 09 00 87 58 6C 52 91 8F 9C 70 8E 8E 8C 8B 85 
HI HI AE 07 88 55 00 D4 00 00 09 00 8D 5B 6D 51 91 8F 9C 86 8E 8E 8B 8C 85 
HI HI AE C7 88 55 00 D4 00 00 09 00 90 5D 6F 50 90 8D 9B 6E 8F 8E 8B 8B 85 
HI HI AE 07 88 55 00 D4 00 00 09 00 93 5E 6E 50 91 8E 9B 66 8F 8E 8B 8B 85 
HI HI AE 07 88 55 00 D4 00 00 09 00 95 60 6B 53 91 8E 9B 81 8F 8E 8B 8B 85 
HI HI AE 07 88 55 00 D4 00 00 09 00 96 61 69 52 91 8E 9B 69 8F 8E 8B 8B 85 
HI HI AE 07 88 55 00 D4 00 00 09 00 96 61 68 54 90 8D 9B 80 8F 8E 8B 8B 85 
HI HI AE 07 88 55 00 D4 00 00 09 00 96 61 6C 54 90 8E 9B 6A 8F 8E 8B 8B 85 
HI HI AE 07 88 55 00 D4 00 00 90 09 95 61 72 4F 92 8E B0 6B 8F 8F 8B 8B 85 
HI HI AE 07 88 55 00 D4 00 00 09 00 95 60 75 4D 91 8E 9C 6A 8F 8F 8B 8B 85 
HI HI AE C7 88 55 00 D4 00 00 09 00 95 60 77 4B 91 8E 9C 73 8F 8F 8B 8B 85 
HI HI AE C7 88 55 00 D4 00 00 09 00 95 60 78 4B 91 8E 9C 73 8F 8F 8B 8B 85 
HI HI AE C7 88 55 00 D4 00 00 09 00 95 61 76 4C 91 8E 9B 77 8F 8F 8B 8B 85 
HI HI AE 07 88 55 00 D4 00 00 09 00 94 63 75 4F 90 8D 85 7A 8F 8F 8B 8B 85

AS278086C  19Apr2002
18:51-19:08(JST)
AOS   MEL  LOS  Elev
  9   287  204  66.0
Freq. 435.803-.786MHz
HI HI AE 07 88 55 00 D4 4F 33 09 41 45 2F 6F 5E 8F 8D B0 8A 8C 88 8C 8F 85 
HI HI AE 07 88 55 00 D4 4F 33 09 41 4D 2D 6F 4F 91 8F 9C 83 8C 88 8C 8F 85 
HI HI AE C7 88 55 00 D4 4F 33 09 41 56 2B 6D 51 90 8E 9B 61 8C 88 8C 8F 85 
HI HI AE 07 88 55 00 D4 4F 33 09 41 5F 2C 68 54 91 8E 9B 6C 8C 88 8C 8F 85 
HI HI AE 07 88 55 00 D4 4F 33 09 41 66 2E 66 54 9C 8E 9B B3 8C 88 8B 8F 85 
HI HI AE 07 88 55 00 D4 4F 33 09 41 6E 32 65 56 90 8E 9B 68 8C 88 8B 8F 85 
HI HI AE 07 88 55 00 D4 4F 33 09 41 74 38 63 56 90 8D 9A 7D 8C 88 8B 8F 84 
HI HI AE 07 88 55 07 D4 4F 33 09 41 79 3E 62 56 8F 8D 89 7D 8D 88 8B 8F 85 
HI HI AE 07 88 55 00 D4 4F 33 09 41 7D 45 5E 59 8E 8C 99 68 8D 88 8B 8F 84 
HI HI AE 07 88 55 00 D4 4F 33 09 41 7F 4D 5C 5B 8D 8B 98 71 8D 88 8B 8F 84 
HI HI AE 07 88 55 00 D4 4F 33 09 41 7F 55 5A 5B 8D 8A 97 73 8E S8 8B 8F 84 
HI HI AE 07 88 55 00 D4 4F 33 09 41 7E 5F 53 5E 8D 8A 96 5F 8D 89 8B 8F 84 
HI HI AE 07 88 55 00 D4 4F 33 09 41 7B 62 50 60 8B 89 95 87 8T 89 8B 8F 85 
HI HI AE 07 88 55 00 D4 4F 33 09 41 77 67 4E 59 8A 88 95 7C 8D 89 8B 8F 84 
HI HI AE 07 88 55 00 D4 4F 33 09 41 75 6A 4A 62 89 88 94 73 8D 89 8B 8F 84 
HI HI AE 07 88 55 00 D4 4F 33 09 41 6D 6D 48 63 89 87 93 63 8D 89 8B 8F 85 
HI HI AE 07 88 55 00 D4 4F 33 09 41 67 6D 4A 63 89 87 93 72 8D 89 8B 8F 85 
HI HI AE 07 88 55 00 D4 4F SA 09 41 61 6C 4A 62 89 86 92 6C 8E 8Q 8B 8F 85 
HI HI AE 07 88 55 00 D4 4F 33 09 41 5C 68 4E 60 88 86 92 71 8E 89 8B 8F 85 
HI HI AE 07 88 55 00 D4 4F 33 09 41 58 63 51 5E 88 86 92 79 8E 89 8B 8F 85 
HI HI AE 07 88 55 00 D4 4F 33 09 41 55 5D 55 5E 88 86 93 61 8E 89 8B 8F 85 
HI HI AE 07 88 55 00 D4 4F 33 09 41 53 56 59 5A 88 87 93 80 8E 8A 8B 8F 85
HI HI AE 07 88 55 00 D4 4F 33 09 41 53 4E 5D 5A 89 87 93 78 8E 8A 8B 8F 85

AS278072C  24Apr2002
18:14-18:16(JST)
AOS   MEL  LOS  Elev
 18    98  180  54.0
Freq. 435.786-.785MHz
HI HI AE 07 88 55 00 D4 EE 17 09 48 56 3F 73 5E 8F 8D B0 7B 8E 8A 8C 8E 85 
HI HI AE 07 88 55 00 D4 EE 17 09 48 56 41 74 5F 90 8D B0 6B 8E 8A 8C 8E 85 
HI HI AE 07 88 55 00 D4 EE 17 09 48 56 41 76 4B 90 8E B0 7A 8E 8A 8C 8E 85 
HI HI AE C7 88 55 00 D4 EE 17 09 48 55 42 75 4D 92 8F B0 7C 8E 8A 8C 8E 85 
HI HI AE C7 88 55 00 D4 EE 17 09 48 54 42 75 4D 91 8E 9C 7C 8E 8A 8C 8F 85 
HI HI AE C7 88 55 00 D4 EE 17 09 48 54 43 74 4E 91 8E 9B 7E 8E 89 8C 8E 85 
HI HI AE C7 88 55 00 D4 EE 17 09 48 4F 44 71 57 

AS278060C  23Apr2002
20:40-20:52(JST)
AOS   MEL  LOS  Elev
348   305  261   10
Freq. 435.801-.790MHz
HI HI AE 07 88 55 00 D4 4F 54 09 3B 93 54 5E 59 8E 8B 98 66 8F 90 8C 89 85 
HI HI AE 07 88 55 00 D4 4F 54 09 3B 8E 49 5E 57 8D 8B 98 79 8F 90 8C 89 85 
HI HI AE 07 88 55 00 D4 4F 54 09 3I 89 3F 5D 59 8D 8B 98 4C 8F 90 8C 89 86 
HI HI AE 07 88 55 00 D4 4F 54 09 3B 82 37 5B 5A 8D 8A 97 71 8F 91 8C 89 85 
HI HI AE 07 88 55 00 D4 4F 54 09 3B 7C 30 5F 57 8D 8B 97 5D 8F 91 8C 89 85 
HI HI AE 07 88 55 00 D4 4F 54 09 3B 76 2B 63 55 8E 8B 98 60 8F 91 8C 89 85 
HI HI AE 07 88 55 00 D4 4F 54 09 3B 70 28 66 54 8F 8C 99 7C 90 91 8C 89 86 
HI HI AE 07 88 55 00 D4 4F 54 09 3B 6B 27 6B 51 91 8E 9B 9F 90 91 8C 89 86 
HI HI AE C7 88 55 00 D4 4F 54 09 3B 66 26 6E 5E 8F 8D 9A 73 90 91 8C 89 86 
HI HI AE 07 88 55 00 D4 4F 54 09 3B 63 28 71 5E 8F 8C B0 73 90 91 8C 8A 86 
HI HI AE 07 88 55 00 D4 4F 54 09 3B 61 2B 73 5E 8F 8D B0 70 90 91 8C 8A 86 
HI HI AE 07 88 55 00 D4 4F 54 09 3B 61 2F 74 5E 90 8D B0 63 90 91 8C 8A 86 
HI HI AE C7 88 55 00 D4 4F 54 09 3B 62 35 75 5F 90 8E B0 6B 90 91 8C 8A 86 
HI HI AE C7 88 55 00 D4 4F 54 09 3B 64 3A 75 4D 91 8F B0 61 90 91 8C 8A 86 
HI HI AE C7 88 55 00 D4 4F 54 09 3B 67 3F 74 4D 91 8E 9C 7F 90 91 8B 8A 86 
 
------------------------ FO-29の軌道要素 ------------------------------        
 
  ■ 軌道要素1:「jamsat−keps:1098」より         
          SB KEPS @ AMSAT  $ORB02115.N
          2Line Orbital Elements 02115.AMSAT

HR AMSAT ORBITAL ELEMENTS FOR AMATEUR SATELLITES IN NASA FORMAT
FROM WA5QGD FORT WORTH,TX April 25, 2002
SEND SUBSCRIBE/UNSUBSCRIBE TO majordomo@amsat.org ONLY
BID: ORB02115.N

 DECODE 2-LINE ELSETS WITH THE FOLLOWING KEY:
 1 AAAAAU 00  0  0 BBBBB.BBBBBBBB  .CCCCCCCC  00000-0  00000-0 0  DDDZ
 2 AAAAA EEE.EEEE FFF.FFFF GGGGGGG HHH.HHHH III.IIII JJ.JJJJJJJJKKKKKZ
 KEY: A-CATALOGNUM B-EPOCHTIME C-DECAY D-ELSETNUM E-INCLINATION F-RAAN
 G-ECCENTRICITY H-ARGPERIGEE I-MNANOM J-MNMOTION K-ORBITNUM Z-CHECKSUM

FO-29
1 24278U 96046B   02115.08866160  .00000084  00000-0  12439-3 0  4935
2 24278  98.5128 302.4412 0350182 273.2349  82.8791 13.52835592280810

 ■ 軌道要素2:「jamsat−keps:1097」より
        SB KEPS @ AMSAT  $ORB02115.O
        Orbital Elements  02115.OSCAR

HR AMSAT ORBITAL ELEMENTS FOR OSCAR SATELLITES
FROM WA5QGD FORT WORTH,TX April 25, 2002
SEND SUBSCRIBE/UNSUBSCRIBE TO majordomo@amsat.org ONLY
BID: ORB02115.O
TO ALL RADIO AMATEURS BT
 
Satellite: FO-29
Catalog number: 24278
Epoch time:      02115.08866160
Element set:     493
Inclination:       98.5128 deg
RA of node:       302.4412 deg
Eccentricity:    0.0350182
Arg of perigee:   273.2349 deg
Mean anomaly:      82.8791 deg
Mean motion:   13.52835592 rev/day
Decay rate:        8.4e-07 rev/day^2
Epoch rev:           28081
Checksum:              312

-------------------  FO-29(JAS-2)のテレメトリに関する情報  ---------------------- 
 
2)上記2002年4月26日(金)のテレメトリの最終行を分析しておきます.

AS278004C  19Apr2002
17:55-18:13(JST)
AOS   MEL  LOS  Elev
 18    98  178  50.5
Freq. 435.803-.786MHz
HI HI AE 07 88 55 00 D4 00 00 09 00 94 63 75 4F 90 8D 85 7A 8F 8F 8B 8B 85
 
テレメトリ   内 容         換算算値 単 位
3C	磁気センサーZ軸=	72549.0	[nT]
3D	磁気センサX軸	=	48529.4	[nT]
4A	太陽電池発生電流=	 1147.1	[mA]
4B	B充放電電流	=	 -451.6	[mA]
4C	B端子電圧	=	   15.5	[V]
4D	B中間端子電圧	=	    6.8	[V]
5A	バス電圧	=	   13.0	[V]
5B	JTA送信電力	=	  694.9	[mW]
5C 	構体温度1	=	   26.3	[℃]
5D	構体温度2	=	   26.3	[℃]
6A	構体温度3	=	   27.9	[℃]
6B	構体温度4	=	   27.9	[℃]
6C	Bセル温度	=	   30.2	[℃]

 ========================== FO-29(ふじ3号)のテレメトリ分析、QSO情報等 =====================
   
 3)[jamsat-bb:

 =================================================================================================
 
 4)JARL のホームページに運用予定が記載されていましたのでご紹介します.
       ( http://www.jarl.or.jp/Japanese/3_Fuji/new/uy.htm )
       
        *** 運用予定について ***

   4月01日(月) 〜 6月30日(日)アナログ系運用 

  *なお,運用予定は都合により,変更することがありますので,あらかじめご了承願います。

 照会先 : lab@jarl.or.jp

 最新の情報はテレホンサービス(03−3942−1000)をお聞きください。  
 以後の運用につきましては平成14年7月上旬にお知らせいたします。        
     
-----------------------    FO−20(JAS-1b)道要素   -------------------------
  
  ■ 軌道要素1 :出典はFO-29「ふじ3号」に同じ.
  
FO-20
1 20480U 90013C   02114.94085609  .00000014  00000-0  11063-3 0 04046
2 20480 099.0233 129.5103 0540204 322.9877 033.5072 12.83315534572083
 
  ■ 軌道要素2 :出典はFO−29「ふじ3号」に同じ.
               
Satellite: FO-20
Catalog number: 20480
Epoch time:      02114.94085609
Element set:    0404
Inclination:      099.0233 deg
RA of node:       129.5103 deg
Eccentricity:    0.0540204
Arg of perigee:   322.9877 deg
Mean anomaly:     033.5072 deg
Mean motion:   12.83315534 rev/day
Decay rate:        1.4e-07 rev/day^2
Epoch rev:           57208
Checksum:              266

-------------------------------------------------------------------------------- 
         ■ ふじ2号/FO−20/JAS-1b ■      
            
          「ふじ2号」 現況                                                                                  
             
   JAS-1b(ふじ2号)のCWテレメトリ信号に,1997年10月12日12時(JST)の
 日本上空通過時,3桁の数字が繰り返されるはずが3個の長音の繰り返しとなっているという
 異常が発見されました。この不具合は次の通過時からは回復していましたが13日15時20分の
 通過時に再び観測されました。現在はA0の送信が続いています。衛星のアナログ系中継モード
 動作は異常が無く,正常時のテレメトリ内容からは衛星の動作に異常は認められません。従って,
 直ちに衛星のミッションに影響することは無いと予想されますので,当面はアナログ系中継
 モードを継続します。衛星は既に打ち上げてから7年8ヶ月を経ておりますので,今後は監視を
 強化する予定です。アマチュア各位のレポートをお待ちします。
 -------------------------------------------------------------------------------- 
  1997年10月14日 00時35分 確認のテレメトリ音 151 KB (A0) 
  1997年10月14日 11時10分 確認のテレメトリ音 216 KB (異常キーイング) 

  以上 JARLのホ−ムページの http://www.jarl.or.jp/Japanese/3_Fuji/new/fuji.htm

===================== FO-20 ふじ2号 のテレメトリ観測結果 ====================

  3月8日(金)18:18(JST)の観測結果ではテレメトリは、以前観測した単一周波数の
正弦波がドップラー効果で周波数がずれていくのみの状態でした。
                                         
   =============   JAS-2 (ふじ3号)と現在までの情報   ===========
  
  A.電話によるふじ3号の運用情報
      社団法人日本アマチュア連盟によるサービス
           TEL .   03− 3942 − 1000
  B.アマチュア無線FAXサービス
      JARLによるふじ3号の軌道情報(オービットカレンダー)
         FAX No.  03− 3233 −0055
  C.WWWブラウザで情報を簡単に見れる人のためにJAS−2
     ふじ3号の衛星としての運用されるまでの名前)の概要、打ち上げ
     までの状況、運用中における状況を説明したホームページを紹介し
     ておきます.

     社団法人日本アマチュア無線連盟(JARL)のホームページ

          http://www.jarl.or.jp/Japanese/3_Fuji/jasmenu.htm
 
     宇宙開発事業団(NASDA)ホームページ 
          http://www.nasda.go.jp/
         打上げ衛星 :地球観測プラットフォーム技術衛星(ADEOS) 
                       アマチュア衛星3号(JAS-2)
          http://spaceboy.nasda.go.jp/note/eisei/j/Eis15h_j.html#Eis15h_01_j
     http://spaceboy.nasda.go.jp/note/eisei/j/Eis15i_j.html        

  D.JAMSATによる軌道情報の活用
        JAMSATのホームページまたはjamsat−kepsの軌道要素より
      衛星の軌道情報を得る.
     JAMSATホームページ
               URL    http://www.jamsat.or.jp
       上記ホームページでは各地で行われるアマチュア通信衛星に関する
      ミューティングのお知らせや世界のアマチュア衛星に関する情報が
      満載されています.

 ========================================================================  
     JAMSATのメンバーのご協力によりJH6MME(高山 秀造)が
    執筆・編集を担当しております.ご指摘の意見、疑問やこのようにしたら
    というアイデアがありましたら小さなことでもかまいませんので気軽に下
    記アドレスまでご連絡ください.jamsat−newsからjas2
    infoへの転載をJH4PHW局坂井さんに担当して頂いております.  
                  E-mail : jh6mme@jamsat.or.jp : jh4phw@jamsat.or.jp
 ===============================   END  ===============================